QPF
0.00 0.00 0.00 0.00 0.00 0.00 0.00 0.00 0.00 0.00 0.00 0.00 0.00 0.00 0.00 0.00 0.00 0.00 0.00 0.00 0.00 0.00 0.00 0.00 0.00 0.00 0.00 0.00 0.00 0.00 0.00 0.00 0.00 0.00 0.00 0.00 0.00 0.00 0.00 0.00 0.00 0.00 0.00 0.00 0.00
0.00 0.00 0.00 0.00 0.00 0.00 0.00 0.00 0.00 0.00 0.00 0.00 0.00 0.00 0.00 0.00 0.00 0.00 0.00 0.00 0.00 0.00 0.00 0.00 0.00 0.00 0.00 0.00 0.00 0.00 0.00 0.00 0.00 0.00 0.00 0.00 0.00 0.00 0.00 0.00 0.00 0.00 0.00 0.00 0.00
0.00 0.00 0.00 0.00 0.00 0.00 0.00 0.00 0.00 0.00 0.00 0.00 0.00 0.00 0.00 0.00 0.00 0.00 0.00 0.00 0.00 0.00 0.00 0.00 0.00 0.00 0.00 0.00 0.00 0.00 0.00 0.00 0.00 0.00 0.00 0.00 0.00 0.00 0.00 0.00 0.00 0.00 0.00 0.00 0.00
0.00 0.00 0.00 0.00 0.00 0.00 0.00 0.00 0.00 0.00 0.00 0.00 0.00 0.00 0.00 0.00 0.00 0.00 0.00 0.00 0.00 0.00 0.00 0.00 0.00 0.00 0.00 0.00 0.00 0.00 0.00 0.00 0.00 0.00 0.00 0.00 0.00 0.00 0.00 0.00 0.00 0.00 0.00 0.00 0.00
0.00 0.00 0.00 0.00 0.00 0.00 0.00 0.00 0.00 0.00 0.00 0.00 0.00 0.00 0.00 0.00 0.00 0.00 0.00 0.00 0.00 0.00 0.00 0.00 0.00 0.00 0.00 0.00 0.00 0.00 0.00 0.00 0.00 0.00 0.00 0.00 0.00 0.00 0.00 0.00 0.00 0.00 0.00 0.00 0.00
0.00 0.00 0.00 0.00 0.00 0.00 0.00 0.00 0.00 0.00 0.00 0.00 0.00 0.00 0.00 0.00 0.00 0.00 0.00 0.00 0.00 0.00 0.00 0.00 0.00 0.00 0.00 0.00 0.00 0.00 0.00 0.00 0.00 0.00 0.00 0.00 0.00 0.00 0.00 0.00 0.00 0.00 0.00 0.00 0.00
0.00 0.00 0.00 0.00 0.00 0.00 0.00 0.00 0.00 0.00 0.00 0.00 0.00 0.00 0.00 0.00 0.00 0.00 0.00 0.00 0.00 0.00 0.00 0.00 0.00 0.00 0.00 0.00 0.00 0.00 0.00 0.00 0.00 0.00 0.00 0.00 0.00 0.00 0.00 0.00 0.00 0.00 0.00 0.00 0.00
0.00 0.00 0.00 0.00 0.00 0.00 0.00 0.00 0.00 0.00 0.00 0.00 0.00 0.00 0.00 0.00 0.00 0.00 0.00 0.00 0.00 0.00 0.00 0.00 0.00 0.00 0.00 0.00 0.00 0.00 0.00 0.00 0.00 0.00 0.00 0.00 0.00 0.00 0.00 0.00 0.00 0.00 0.00 0.00 0.00
0.00 0.00 0.00 0.00 0.00 0.00 0.00 0.00 0.00 0.00 0.00 0.00 0.00 0.00 0.00 0.00 0.00 0.00 0.00 0.00 0.00 0.00 0.00 0.00 0.00 0.00 0.00 0.00 0.00 0.00 0.00 0.00 0.00 0.00 0.00 0.00 0.00 0.00 0.00 0.00 0.00 0.00 0.00 0.00 0.00
0.00 0.00 0.00 0.00 0.00 0.00 0.00 0.00 0.00 0.00 0.00 0.00 0.00 0.00 0.00 0.00 0.00 0.00 0.00 0.00 0.00 0.00 0.00 0.00 0.00 0.00 0.00 0.00 0.00 0.00 0.00 0.00 0.00 0.00 0.00 0.00 0.00 0.00 0.00 0.00 0.00 0.00 0.00 0.00 0.00
0.00 0.00 0.00 0.00 0.00 0.00 0.00 0.00 0.00 0.00 0.00 0.00 0.00 0.00 0.00 0.00 0.00 0.00 0.00 0.00 0.00 0.00 0.00 0.00 0.00 0.00 0.00 0.00 0.00 0.00 0.00 0.00 0.00 0.00 0.00 0.00 0.00 0.00 0.00 0.00 0.00 0.00 0.00 0.00 0.00
0.00 0.00 0.00 0.00 0.00 0.00 0.00 0.00 0.00 0.00 0.00 0.00 0.00 0.00 0.00 0.00 0.00 0.00 0.00 0.00 0.00 0.00 0.00 0.00 0.00 0.00 0.00 0.00 0.00 0.00 0.00 0.00 0.00 0.00 0.00 0.00 0.00 0.00 0.00 0.00 0.00 0.00 0.00 0.00 0.00
0.00 0.00 0.00 0.00 0.00 0.00 0.00 0.00 0.00 0.00 0.00 0.00 0.00 0.00 0.00 0.00 0.00 0.00 0.00 0.00 0.00 0.00 0.00 0.00 0.00 0.00 0.00 0.00 0.00 0.00 0.00 0.00 0.00 0.00 0.00 0.00 0.00 0.00 0.00 0.00 0.00 0.00 0.00 0.00 0.00
0.00 0.00 0.00 0.00 0.00 0.00 0.00 0.00 0.00 0.00 0.00 0.00 0.00 0.00 0.00 0.00 0.00 0.00 0.00 0.00 0.00 0.00 0.00 0.00 0.00 0.00 0.00 0.00 0.00 0.00 0.00 0.00 0.00 0.00 0.00 0.00 0.00 0.00 0.00 0.00 0.00 0.00 0.00 0.00 0.00
0.00 0.00 0.00 0.00 0.00 0.00 0.00 0.00 0.00 0.00 0.00 0.00 0.00 0.00 0.00 0.00 0.00 0.00 0.00 0.00 0.00 0.00 0.00 0.00 0.00 0.00 0.00 0.00 0.00 0.00 0.00 0.00 0.00 0.00 0.00 0.00 0.00 0.00 0.00 0.00 0.00 0.00 0.00 0.00 0.00
0.00 0.00 0.00 0.00 0.00 0.00 0.00 0.00 0.00 0.00 0.00 0.00 0.00 0.00 0.00 0.00 0.00 0.00 0.00 0.00 0.00 0.00 0.00 0.00 0.00 0.00 0.00 0.00 0.00 0.00 0.00 0.00 0.00 0.00 0.00 0.00 0.00 0.00 0.00 0.00 0.00 0.00 0.00 0.00 0.00
0.00 0.01 0.00 0.00 0.00 0.00 0.00 0.00 0.00 0.00 0.00 0.00 0.00 0.00 0.00 0.00 0.00 0.00 0.00 0.00 0.00 0.00 0.00 0.00 0.00 0.00 0.00 0.00 0.00 0.00 0.00 0.00 0.00 0.00 0.00 0.00 0.00 0.00 0.00 0.00 0.00 0.00 0.00 0.00 0.00
0.00 0.01 0.00 0.00 0.00 0.00 0.00 0.00 0.00 0.00 0.00 0.00 0.00 0.00 0.00 0.00 0.00 0.00 0.00 0.00 0.00 0.00 0.00 0.00 0.00 0.00 0.00 0.00 0.00 0.00 0.00 0.00 0.00 0.00 0.00 0.00 0.00 0.00 0.00 0.00 0.00 0.00 0.00 0.00 0.00
0.00 0.00 0.00 0.00 0.00 0.00 0.00 0.00 0.00 0.00 0.00 0.00 0.00 0.00 0.00 0.00 0.00 0.00 0.00 0.00 0.00 0.00 0.00 0.00 0.00 0.00 0.00 0.00 0.00 0.00 0.00 0.00 0.00 0.00 0.00 0.00 0.00 0.00 0.00 0.00 0.00 0.00 0.00 0.00 0.00
0.00 0.00 0.00 0.00 0.00 0.00 0.00 0.00 0.00 0.00 0.00 0.00 0.00 0.00 0.00 0.00 0.00 0.00 0.00 0.00 0.00 0.00 0.00 0.00 0.00 0.00 0.00 0.00 0.00 0.00 0.00 0.00 0.00 0.00 0.00 0.00 0.00 0.00 0.00 0.00 0.00 0.00 0.00 0.00 0.00
0.00 0.01 0.00 0.00 0.00 0.00 0.00 0.00 0.00 0.00 0.00 0.00 0.00 0.00 0.00 0.00 0.00 0.00 0.00 0.00 0.00 0.00 0.00 0.00 0.00 0.00 0.00 0.00 0.00 0.00 0.00 0.00 0.00 0.00 0.00 0.00 0.00 0.00 0.00 0.00 0.00 0.00 0.00 0.00 0.00
0.02 0.01 0.00 0.00 0.01 0.00 0.00 0.00 0.00 0.00 0.00 0.00 0.00 0.00 0.00 0.00 0.00 0.00 0.00 0.00 0.00 0.00 0.00 0.00 0.00 0.00 0.00 0.00 0.00 0.00 0.00 0.00 0.00 0.00 0.00 0.00 0.00 0.00 0.00 0.00 0.00 0.00 0.00 0.00 0.00
0.02 0.01 0.00 0.02 0.03 0.00 0.00 0.00 0.00 0.00 0.00 0.00 0.00 0.00 0.00 0.00 0.00 0.00 0.00 0.00 0.00 0.00 0.00 0.00 0.00 0.00 0.00 0.00 0.00 0.00 0.00 0.00 0.00 0.00 0.00 0.00 0.00 0.00 0.00 0.00 0.00 0.00 0.00 0.00 0.00
0.04 0.01 0.00 0.02 0.03 0.00 0.00 0.00 0.00 0.00 0.00 0.00 0.00 0.00 0.00 0.00 0.00 0.00 0.00 0.00 0.00 0.00 0.00 0.00 0.00 0.00 0.00 0.00 0.00 0.00 0.00 0.00 0.00 0.00 0.00 0.00 0.00 0.00 0.00 0.00 0.00 0.00 0.00 0.00 0.00
0.04 0.02 0.00 0.01 0.01 0.00 0.00 0.00 0.00 0.00 0.00 0.00 0.00 0.00 0.00 0.00 0.00 0.00 0.00 0.00 0.00 0.00 0.00 0.00 0.00 0.00 0.00 0.00 0.00 0.00 0.00 0.00 0.00 0.00 0.00 0.00 0.00 0.00 0.00 0.00 0.00 0.00 0.00 0.00 0.00
0.03 0.03 0.02 0.01 0.00 0.00 0.00 0.00 0.00 0.00 0.00 0.00 0.00 0.00 0.00 0.00 0.00 0.00 0.00 0.00 0.00 0.00 0.00 0.00 0.00 0.00 0.00 0.00 0.00 0.00 0.00 0.00 0.00 0.00 0.00 0.00 0.00 0.00 0.00 0.00 0.00 0.00 0.00 0.00 0.00
0.01 0.02 0.05 0.04 0.02 0.02 0.00 0.00 0.00 0.00 0.00 0.00 0.00 0.00 0.00 0.00 0.00 0.00 0.00 0.00 0.00 0.00 0.00 0.00 0.00 0.00 0.00 0.00 0.00 0.00 0.00 0.00 0.00 0.00 0.00 0.00 0.00 0.00 0.00 0.00 0.00 0.00 0.00 0.00 0.00
MSLP
1022.47 1022.34 1022.10 1021.81 1021.55 1021.32 1021.02 1020.66 1020.27 1019.87 1019.48 1019.04 1018.56 1018.07 1017.61 1017.16 1016.17 1015.43 1015.04 1014.84 1014.57 1014.51 1014.48 1013.83 1013.10 1012.66 1012.63 1012.72 1012.95 1012.79 1012.82 1012.22 1011.75 1011.80 1012.46 1012.91 1013.24 1013.86 1014.32 1014.64 1015.15 1015.70 1016.35 1017.28 1018.20
1022.45 1022.27 1022.14 1021.93 1021.65 1021.36 1021.05 1020.72 1020.31 1019.87 1019.43 1019.00 1018.49 1017.98 1017.58 1017.19 1016.27 1014.87 1014.72 1014.31 1014.37 1014.55 1014.27 1013.47 1012.80 1012.55 1012.56 1012.57 1012.79 1012.75 1012.66 1012.29 1012.01 1012.01 1012.44 1012.99 1013.27 1013.82 1014.37 1014.55 1015.14 1016.00 1016.95 1017.64 1018.38
1022.59 1022.34 1022.11 1021.88 1021.65 1021.39 1021.06 1020.69 1020.27 1019.84 1019.36 1018.85 1018.37 1017.90 1017.46 1017.15 1015.91 1014.59 1014.55 1014.24 1014.44 1014.54 1014.33 1013.62 1013.16 1012.87 1012.57 1012.67 1012.48 1012.44 1012.51 1012.35 1012.69 1012.77 1012.86 1013.06 1013.52 1013.71 1014.07 1014.32 1014.31 1015.28 1016.54 1017.50 1018.35
1022.86 1022.62 1022.27 1021.91 1021.57 1021.27 1020.96 1020.60 1020.18 1019.73 1019.25 1018.79 1018.28 1017.77 1017.15 1016.61 1015.31 1014.35 1014.35 1014.28 1014.40 1014.39 1014.01 1013.24 1012.83 1012.75 1012.70 1012.60 1012.46 1012.58 1012.54 1012.87 1013.07 1013.43 1013.43 1013.50 1013.46 1013.65 1014.03 1014.00 1014.10 1014.49 1015.71 1016.90 1017.84
1022.88 1022.60 1022.34 1022.02 1021.58 1021.15 1020.80 1020.44 1020.03 1019.57 1019.15 1018.70 1018.22 1017.83 1016.79 1015.71 1014.25 1014.17 1014.15 1014.15 1014.14 1013.96 1013.53 1013.25 1012.89 1012.58 1012.62 1012.38 1012.59 1012.58 1012.67 1013.10 1013.38 1013.75 1013.86 1013.89 1014.00 1014.02 1013.79 1013.68 1014.09 1014.66 1015.65 1016.60 1017.21
1022.85 1022.59 1022.26 1021.90 1021.58 1021.14 1020.67 1020.26 1019.81 1019.35 1018.93 1018.55 1018.11 1017.84 1017.15 1015.13 1013.58 1013.67 1013.83 1013.90 1013.79 1013.69 1013.29 1013.27 1013.08 1012.92 1012.73 1012.54 1012.75 1012.61 1012.86 1013.11 1013.52 1013.73 1013.88 1014.17 1014.00 1014.02 1013.46 1013.64 1014.03 1014.71 1015.43 1015.99 1016.44
1022.98 1022.57 1022.23 1021.87 1021.41 1021.02 1020.55 1020.01 1019.51 1019.02 1018.62 1018.27 1018.01 1017.62 1016.03 1014.21 1013.42 1013.51 1013.79 1013.75 1013.87 1013.75 1013.55 1013.47 1013.59 1013.45 1012.97 1012.81 1012.99 1012.91 1013.09 1013.21 1013.33 1013.61 1013.88 1014.16 1014.08 1013.31 1013.37 1013.46 1013.95 1014.55 1015.06 1015.47 1015.74
1022.87 1022.63 1022.28 1021.83 1021.31 1020.78 1020.26 1019.67 1019.07 1018.61 1018.21 1017.94 1017.87 1017.30 1015.13 1013.68 1013.46 1013.70 1013.53 1013.48 1013.70 1013.67 1013.77 1013.79 1013.67 1013.48 1013.35 1013.16 1013.15 1013.01 1013.08 1012.94 1012.67 1013.38 1013.93 1014.33 1013.25 1012.64 1012.79 1013.45 1013.84 1014.11 1014.40 1014.79 1015.21
1022.71 1022.49 1022.17 1021.76 1021.21 1020.55 1019.83 1019.10 1018.43 1017.99 1017.76 1017.66 1017.49 1016.48 1014.46 1013.87 1013.63 1013.27 1013.31 1013.39 1013.43 1013.64 1013.72 1013.77 1013.81 1013.46 1013.47 1013.35 1012.96 1012.66 1012.36 1012.26 1012.79 1013.02 1013.52 1014.09 1013.16 1012.41 1012.59 1013.06 1013.50 1013.45 1013.77 1014.05 1014.57
1022.67 1022.45 1022.08 1021.64 1021.03 1020.34 1019.40 1018.08 1017.38 1017.59 1017.26 1016.76 1016.42 1015.93 1013.97 1013.51 1013.50 1013.41 1013.39 1013.61 1013.58 1013.54 1013.60 1013.75 1013.60 1013.46 1013.28 1013.14 1012.98 1012.52 1012.07 1011.92 1012.26 1013.12 1013.46 1013.49 1012.97 1012.48 1012.28 1012.59 1012.99 1012.93 1013.04 1013.41 1013.73
1022.54 1022.37 1022.10 1021.54 1020.90 1020.21 1019.31 1017.30 1017.41 1017.68 1016.59 1015.44 1014.84 1014.01 1013.53 1013.56 1013.75 1013.59 1013.34 1013.55 1013.63 1013.71 1013.51 1013.23 1013.39 1013.02 1012.61 1012.79 1012.91 1012.82 1012.55 1012.36 1012.05 1012.93 1013.21 1012.88 1012.40 1011.64 1011.20 1011.75 1012.13 1012.47 1012.45 1012.60 1012.86
1022.61 1022.33 1021.97 1021.44 1020.81 1020.11 1019.58 1018.42 1019.07 1019.14 1017.26 1014.87 1014.00 1013.68 1013.54 1013.64 1013.39 1013.17 1013.33 1013.61 1013.45 1013.47 1013.08 1013.25 1013.04 1012.93 1012.84 1013.05 1013.25 1013.07 1012.86 1012.50 1012.25 1012.71 1013.20 1012.47 1011.64 1010.77 1010.44 1010.44 1010.81 1011.42 1011.74 1011.83 1012.05
1022.62 1022.38 1022.04 1021.40 1020.75 1019.87 1019.28 1019.29 1019.11 1018.81 1017.46 1013.97 1012.87 1012.78 1013.23 1013.78 1013.23 1012.68 1013.38 1013.25 1013.32 1013.28 1013.12 1013.11 1012.93 1013.07 1013.15 1013.26 1013.39 1013.13 1013.10 1013.13 1013.38 1013.05 1012.28 1012.45 1011.12 1009.72 1009.32 1009.51 1009.83 1010.35 1010.71 1010.99 1011.44
1022.50 1022.42 1022.12 1021.37 1021.23 1019.87 1019.19 1019.25 1018.99 1018.88 1017.29 1013.80 1013.15 1012.65 1012.80 1013.42 1013.25 1012.72 1012.94 1013.24 1013.03 1013.18 1012.99 1012.94 1013.08 1013.20 1013.35 1013.51 1013.43 1013.72 1013.74 1013.82 1013.83 1013.69 1012.72 1012.32 1011.39 1009.38 1008.87 1009.19 1009.64 1010.15 1010.44 1010.57 1010.90
1022.52 1022.43 1022.28 1022.01 1021.69 1020.03 1019.86 1019.45 1019.09 1018.76 1016.63 1013.54 1013.39 1013.41 1012.80 1013.26 1013.27 1013.35 1013.49 1013.46 1013.43 1013.14 1013.41 1013.29 1013.29 1013.59 1013.59 1013.62 1013.62 1014.18 1014.29 1014.31 1014.23 1014.02 1013.34 1011.78 1011.75 1008.75 1008.34 1009.14 1009.28 1009.50 1009.99 1010.25 1010.45
1022.63 1022.43 1022.41 1021.36 1021.17 1020.09 1019.93 1019.59 1019.11 1018.28 1014.92 1013.29 1013.13 1013.26 1013.35 1013.28 1013.19 1013.89 1014.02 1013.96 1013.71 1013.45 1013.36 1013.41 1013.60 1013.79 1013.75 1014.03 1014.31 1014.53 1014.62 1014.43 1014.32 1014.07 1013.33 1011.17 1010.99 1008.70 1007.89 1007.49 1008.13 1008.56 1009.11 1009.59 1010.14
1022.75 1022.44 1022.48 1021.67 1020.64 1020.22 1020.11 1019.46 1018.65 1016.23 1013.06 1013.14 1012.82 1012.83 1013.05 1013.17 1013.19 1013.57 1013.74 1013.82 1013.62 1013.85 1013.36 1012.96 1013.48 1013.81 1014.12 1014.42 1014.69 1014.88 1014.92 1014.61 1014.66 1014.08 1012.63 1010.94 1010.53 1008.06 1006.68 1006.14 1006.81 1007.66 1008.50 1009.10 1009.69
1022.60 1022.39 1021.97 1021.60 1020.83 1020.64 1020.24 1019.49 1017.42 1013.74 1012.54 1012.49 1012.49 1012.77 1012.57 1012.53 1012.97 1013.13 1013.25 1013.33 1013.21 1013.12 1012.79 1012.61 1013.13 1013.55 1014.00 1014.09 1014.14 1014.66 1014.56 1014.52 1014.13 1013.30 1012.20 1011.47 1009.56 1006.80 1005.43 1005.30 1005.84 1006.70 1007.80 1008.81 1009.64
1022.43 1022.09 1021.83 1020.87 1020.78 1020.91 1020.46 1018.60 1015.37 1013.59 1012.37 1012.26 1012.55 1012.51 1012.35 1012.09 1012.71 1012.60 1012.91 1012.65 1012.32 1012.55 1012.68 1012.04 1012.87 1013.77 1014.08 1014.18 1014.54 1014.31 1014.67 1014.35 1014.12 1012.71 1012.34 1010.24 1008.09 1006.40 1005.75 1005.73 1006.16 1006.86 1007.75 1008.55 1009.26
1022.48 1022.00 1021.08 1020.26 1020.20 1020.72 1020.23 1017.13 1014.97 1013.26 1012.79 1012.46 1012.28 1011.99 1011.47 1011.85 1012.59 1012.31 1012.22 1011.16 1011.62 1011.48 1011.96 1011.91 1012.75 1013.89 1014.72 1015.06 1014.87 1014.97 1015.01 1014.66 1014.42 1013.83 1012.53 1009.40 1007.61 1006.12 1006.14 1006.20 1006.51 1007.08 1007.64 1008.32 1008.99
1022.85 1022.00 1020.36 1020.57 1020.10 1020.28 1018.77 1017.03 1015.49 1013.59 1013.32 1013.09 1012.61 1012.12 1011.55 1011.44 1011.79 1011.76 1011.44 1010.97 1010.91 1011.18 1011.71 1012.37 1012.94 1014.39 1014.78 1014.53 1014.08 1015.01 1014.77 1014.42 1014.08 1013.43 1012.31 1010.15 1007.44 1005.47 1004.94 1005.44 1006.11 1006.75 1007.34 1007.87 1008.47
1022.96 1022.15 1020.97 1020.65 1020.60 1019.23 1017.83 1016.72 1015.64 1014.12 1013.67 1013.43 1013.24 1012.98 1012.17 1011.45 1011.59 1011.87 1011.17 1010.96 1011.20 1011.53 1012.02 1012.29 1012.74 1013.14 1013.29 1012.78 1013.03 1013.31 1013.56 1013.83 1013.83 1013.09 1012.11 1010.77 1007.63 1005.14 1004.73 1004.75 1005.27 1006.20 1006.80 1007.40 1007.91
1022.78 1022.11 1021.80 1021.32 1020.19 1019.02 1017.64 1016.52 1015.70 1014.82 1014.16 1013.40 1013.22 1013.10 1012.43 1012.02 1011.75 1011.32 1011.36 1011.78 1011.73 1012.05 1012.56 1012.56 1012.89 1013.35 1013.02 1013.46 1013.24 1013.04 1012.77 1012.91 1012.94 1012.70 1012.10 1011.15 1007.59 1005.45 1004.71 1004.56 1004.73 1005.52 1006.18 1006.78 1007.47
1023.22 1022.01 1022.07 1022.02 1020.51 1019.45 1017.98 1016.41 1015.20 1014.51 1014.29 1013.81 1013.41 1013.26 1012.95 1012.38 1011.95 1011.40 1011.40 1012.02 1012.35 1012.62 1012.92 1013.21 1012.68 1012.27 1011.66 1011.16 1011.38 1012.27 1011.83 1011.94 1012.37 1011.89 1011.30 1009.54 1007.49 1005.85 1005.17 1004.92 1004.86 1005.20 1005.52 1006.20 1006.91
1023.23 1021.65 1021.08 1021.02 1020.72 1019.73 1018.52 1016.53 1015.47 1014.59 1014.21 1013.75 1013.41 1013.20 1013.10 1012.61 1012.19 1011.71 1011.55 1012.13 1012.76 1012.92 1013.19 1013.35 1012.78 1012.37 1011.48 1010.57 1010.75 1010.76 1010.62 1010.82 1010.97 1010.80 1009.94 1008.57 1007.63 1005.89 1004.97 1004.84 1004.78 1004.81 1005.19 1005.75 1006.20
1022.97 1022.21 1021.25 1021.01 1020.25 1019.92 1018.67 1017.00 1015.98 1014.90 1014.38 1013.41 1013.14 1013.07 1012.83 1012.34 1012.05 1011.63 1011.52 1011.37 1011.82 1012.71 1013.24 1012.86 1012.47 1012.20 1011.32 1010.70 1010.18 1009.61 1009.15 1009.14 1009.31 1009.39 1009.21 1008.38 1006.57 1005.56 1004.93 1004.44 1004.51 1004.72 1005.01 1005.32 1005.57
1022.23 1022.21 1022.50 1020.96 1020.28 1019.89 1018.51 1017.58 1016.48 1016.08 1014.54 1013.83 1013.46 1012.95 1012.28 1012.04 1011.80 1011.58 1011.09 1010.87 1010.90 1011.09 1012.07 1012.36 1012.44 1012.31 1011.27 1010.88 1010.18 1008.38 1006.17 1007.11 1007.60 1007.37 1007.84 1006.93 1005.20 1005.19 1005.00 1004.34 1003.88 1004.17 1004.40 1004.61 1004.65
Thickness
5675 5675 5676 5678 5680 5682 5685 5689 5693 5698 5703 5708 5713 5718 5721 5723 5730 5735 5726 5730 5731 5730 5730 5733 5736 5738 5739 5732 5736 5742 5712 5712 5730 5734 5729 5747 5742 5750 5753 5745 5749 5751 5746 5745 5742
5676 5676 5676 5677 5680 5683 5685 5689 5693 5699 5703 5708 5713 5718 5721 5724 5729 5732 5737 5736 5733 5730 5729 5728 5726 5733 5724 5728 5729 5723 5709 5719 5740 5743 5739 5743 5745 5742 5741 5744 5743 5744 5745 5745 5741
5676 5677 5677 5678 5680 5683 5687 5690 5694 5699 5704 5710 5715 5719 5723 5724 5725 5732 5738 5737 5733 5731 5730 5732 5732 5727 5719 5727 5728 5728 5713 5735 5734 5739 5744 5744 5742 5752 5744 5740 5754 5746 5743 5744 5741
5673 5675 5677 5680 5682 5685 5688 5692 5695 5700 5705 5710 5716 5720 5725 5728 5705 5739 5740 5738 5735 5733 5731 5731 5729 5718 5714 5712 5731 5715 5731 5731 5732 5733 5738 5738 5751 5748 5749 5752 5764 5766 5757 5750 5744
5674 5675 5677 5679 5683 5687 5690 5693 5697 5702 5706 5711 5716 5719 5728 5724 5729 5743 5742 5740 5738 5736 5730 5726 5721 5723 5710 5722 5725 5719 5727 5732 5732 5732 5736 5743 5739 5743 5751 5764 5767 5767 5760 5753 5751
5673 5675 5677 5680 5683 5687 5691 5695 5699 5704 5708 5711 5716 5719 5721 5712 5749 5747 5745 5743 5741 5736 5734 5731 5725 5728 5721 5723 5719 5730 5731 5732 5732 5735 5740 5736 5742 5747 5757 5765 5764 5762 5759 5759 5758
5671 5674 5676 5679 5683 5687 5692 5696 5701 5706 5710 5713 5715 5718 5722 5726 5750 5749 5746 5743 5743 5739 5730 5735 5732 5723 5727 5721 5732 5732 5721 5729 5734 5739 5739 5744 5733 5745 5761 5767 5764 5761 5760 5763 5764
5672 5673 5675 5678 5682 5687 5693 5698 5704 5708 5712 5714 5715 5719 5719 5748 5750 5747 5749 5745 5747 5746 5739 5740 5739 5731 5727 5734 5729 5724 5725 5715 5741 5743 5742 5740 5739 5757 5769 5762 5761 5765 5766 5766 5769
5673 5674 5676 5678 5682 5687 5694 5701 5708 5711 5714 5715 5716 5719 5719 5747 5741 5750 5750 5740 5744 5744 5743 5743 5738 5730 5730 5717 5716 5726 5718 5729 5730 5749 5746 5738 5740 5764 5772 5767 5765 5770 5773 5771 5771
5672 5673 5676 5679 5682 5687 5695 5707 5713 5713 5715 5718 5721 5712 5733 5731 5741 5746 5750 5745 5737 5738 5734 5731 5728 5720 5722 5719 5701 5718 5730 5743 5740 5739 5741 5739 5740 5762 5770 5769 5767 5774 5779 5777 5775
5671 5672 5673 5677 5683 5687 5694 5709 5708 5703 5713 5717 5721 5726 5731 5740 5743 5738 5746 5739 5737 5730 5715 5731 5715 5711 5732 5731 5731 5730 5731 5731 5752 5743 5739 5738 5747 5764 5780 5773 5770 5774 5779 5782 5782
5667 5670 5672 5676 5681 5687 5689 5698 5687 5687 5691 5724 5730 5730 5736 5737 5726 5735 5744 5725 5724 5712 5729 5723 5708 5731 5737 5735 5728 5729 5726 5732 5750 5748 5740 5743 5752 5773 5782 5784 5785 5783 5782 5786 5790
5665 5667 5670 5675 5679 5687 5690 5685 5689 5692 5688 5721 5735 5731 5728 5729 5724 5731 5733 5729 5719 5715 5720 5712 5728 5735 5731 5729 5724 5728 5728 5726 5725 5739 5749 5744 5749 5771 5788 5795 5796 5796 5798 5797 5794
5664 5664 5667 5672 5674 5683 5685 5686 5686 5688 5679 5714 5716 5727 5731 5726 5717 5740 5738 5728 5724 5713 5721 5722 5731 5727 5724 5720 5730 5712 5728 5729 5727 5723 5722 5754 5717 5781 5785 5785 5788 5787 5790 5797 5799
5661 5661 5662 5665 5666 5675 5678 5682 5684 5682 5662 5714 5712 5729 5731 5717 5719 5719 5731 5724 5709 5716 5718 5710 5719 5715 5714 5722 5731 5718 5726 5725 5725 5718 5724 5746 5724 5763 5783 5774 5782 5789 5793 5797 5801
5656 5657 5657 5666 5667 5674 5674 5677 5678 5664 5666 5702 5712 5706 5705 5711 5716 5712 5712 5720 5720 5714 5718 5712 5724 5720 5723 5722 5723 5724 5720 5721 5723 5717 5706 5741 5734 5761 5775 5788 5793 5800 5801 5802 5802
5650 5653 5652 5657 5664 5668 5670 5671 5659 5661 5716 5697 5701 5706 5701 5700 5705 5704 5700 5697 5694 5683 5688 5711 5709 5718 5721 5712 5717 5714 5707 5694 5694 5694 5707 5752 5740 5760 5804 5811 5809 5805 5804 5805 5805
5643 5647 5650 5652 5658 5659 5662 5658 5649 5704 5707 5713 5706 5701 5694 5705 5700 5702 5698 5691 5704 5703 5698 5696 5692 5707 5716 5714 5717 5705 5712 5695 5693 5704 5721 5741 5723 5766 5815 5823 5822 5817 5810 5807 5804
5634 5639 5643 5649 5651 5650 5648 5644 5675 5693 5711 5704 5698 5688 5690 5702 5693 5698 5692 5695 5707 5706 5690 5700 5697 5709 5714 5718 5715 5714 5695 5719 5707 5728 5711 5736 5767 5797 5810 5810 5813 5809 5807 5803 5804
5624 5629 5637 5641 5645 5640 5636 5657 5679 5701 5702 5703 5687 5696 5694 5692 5682 5690 5691 5715 5704 5717 5716 5709 5692 5702 5698 5702 5706 5702 5709 5694 5697 5683 5698 5744 5762 5768 5784 5790 5800 5802 5801 5803 5805
5609 5616 5634 5633 5635 5627 5635 5653 5670 5691 5694 5687 5688 5689 5698 5695 5689 5690 5697 5711 5715 5712 5711 5706 5694 5680 5689 5688 5696 5689 5692 5701 5707 5707 5703 5712 5753 5798 5794 5800 5798 5799 5803 5803 5803
5591 5602 5619 5618 5611 5626 5639 5657 5665 5673 5682 5681 5681 5679 5683 5696 5688 5681 5693 5705 5710 5707 5693 5700 5690 5681 5687 5712 5713 5712 5706 5705 5684 5706 5710 5713 5726 5811 5810 5808 5806 5802 5805 5805 5805
5577 5588 5593 5598 5607 5621 5639 5647 5652 5656 5659 5671 5672 5676 5686 5681 5674 5689 5689 5691 5699 5693 5686 5691 5676 5665 5679 5688 5698 5694 5707 5711 5714 5711 5698 5688 5732 5797 5806 5808 5810 5803 5804 5805 5804
5553 5572 5572 5571 5581 5601 5621 5633 5642 5656 5651 5658 5662 5668 5666 5668 5678 5679 5686 5681 5685 5684 5679 5678 5679 5681 5678 5699 5700 5686 5702 5709 5704 5688 5709 5723 5751 5782 5789 5796 5804 5804 5805 5803 5802
5530 5554 5565 5570 5568 5580 5596 5619 5625 5631 5643 5650 5645 5651 5652 5650 5660 5665 5676 5671 5670 5673 5671 5668 5663 5675 5691 5704 5703 5704 5708 5704 5700 5713 5709 5740 5741 5772 5786 5786 5793 5802 5805 5801 5800
5512 5523 5539 5542 5554 5560 5573 5593 5603 5618 5625 5632 5633 5640 5644 5642 5651 5655 5664 5670 5668 5662 5656 5666 5659 5670 5676 5694 5696 5698 5710 5711 5710 5717 5717 5732 5745 5778 5785 5789 5794 5795 5793 5792 5796
5495 5495 5490 5519 5531 5537 5561 5569 5579 5590 5609 5617 5623 5624 5629 5638 5650 5655 5665 5670 5673 5668 5653 5656 5653 5657 5657 5677 5680 5682 5725 5720 5720 5731 5725 5722 5762 5774 5769 5779 5785 5787 5789 5789 5797